TimeEDT,TemperatureF,Dew PointF,Humidity,Sea Level PressureIn,VisibilityMPH,Wind Direction,Wind SpeedMPH,Gust SpeedMPH,PrecipitationIn,Events,Conditions,WindDirDegrees,DateUTC
12:15 AM,42.8,33.8,70,29.85,10.0,WNW,13.8,20.7,N/A,,Overcast,300,2012-10-26 04:15:00
12:35 AM,41.0,33.8,76,29.88,10.0,WNW,10.4,-,N/A,,Overcast,290,2012-10-26 04:35:00
12:55 AM,41.0,33.8,76,29.89,10.0,WNW,18.4,25.3,N/A,,Overcast,290,2012-10-26 04:55:00
1:15 AM,41.0,33.8,76,29.91,10.0,West,12.7,19.6,N/A,,Overcast,280,2012-10-26 05:15:00
1:35 AM,39.2,32.0,75,29.91,10.0,WNW,16.1,26.5,N/A,,Mostly Cloudy,290,2012-10-26 05:35:00
2:15 AM,39.2,30.2,70,29.94,10.0,West,10.4,-,N/A,,Partly Cloudy,280,2012-10-26 06:15:00
2:35 AM,39.2,32.0,75,29.96,10.0,West,10.4,-,N/A,,Mostly Cloudy,280,2012-10-26 06:35:00
2:55 AM,39.2,32.0,75,29.97,10.0,West,11.5,-,N/A,,Mostly Cloudy,280,2012-10-26 06:55:00
3:15 AM,39.2,30.2,70,29.98,10.0,WNW,16.1,19.6,N/A,,Mostly Cloudy,290,2012-10-26 07:15:00
3:35 AM,39.2,32.0,75,29.99,10.0,WNW,10.4,-,N/A,,Overcast,290,2012-10-26 07:35:00
3:55 AM,39.2,30.2,70,30.00,10.0,West,8.1,-,N/A,,Overcast,270,2012-10-26 07:55:00
4:15 AM,37.4,28.4,70,30.01,10.0,West,10.4,-,N/A,,Scattered Clouds,280,2012-10-26 08:15:00
4:55 AM,35.6,28.4,75,30.03,10.0,West,8.1,-,N/A,,Clear,270,2012-10-26 08:55:00
5:15 AM,33.8,26.6,75,30.04,10.0,West,8.1,-,N/A,,Clear,270,2012-10-26 09:15:00
5:35 AM,33.8,26.6,75,30.05,10.0,West,6.9,-,N/A,,Clear,260,2012-10-26 09:35:00
5:55 AM,33.8,26.6,75,30.06,10.0,WSW,6.9,-,N/A,,Clear,250,2012-10-26 09:55:00
6:15 AM,33.8,28.4,81,30.07,10.0,WSW,6.9,-,N/A,,Clear,250,2012-10-26 10:15:00
6:35 AM,32.0,26.6,80,30.08,10.0,WSW,4.6,-,N/A,,Clear,240,2012-10-26 10:35:00
6:55 AM,32.0,26.6,80,30.09,10.0,SW,6.9,-,N/A,,Clear,230,2012-10-26 10:55:00
7:15 AM,32.0,26.6,80,30.11,10.0,SSW,5.8,-,N/A,,Clear,210,2012-10-26 11:15:00
7:35 AM,30.2,26.6,86,30.12,10.0,SW,6.9,-,N/A,,Clear,220,2012-10-26 11:35:00
8:15 AM,30.2,26.6,86,30.13,10.0,SW,5.8,-,N/A,,Clear,220,2012-10-26 12:15:00
8:55 AM,32.0,26.6,80,30.15,10.0,WSW,4.6,-,N/A,,Scattered Clouds,250,2012-10-26 12:55:00
9:35 AM,33.8,28.4,81,30.17,10.0,WSW,9.2,-,N/A,,Overcast,250,2012-10-26 13:35:00
9:55 AM,35.6,28.4,75,30.18,10.0,WSW,6.9,-,N/A,,Overcast,250,2012-10-26 13:55:00
10:15 AM,37.4,28.4,70,30.19,10.0,WSW,9.2,-,N/A,,Mostly Cloudy,240,2012-10-26 14:15:00
10:35 AM,37.4,28.4,70,30.20,10.0,WSW,10.4,-,N/A,,Partly Cloudy,250,2012-10-26 14:35:00
11:15 AM,39.2,28.4,65,30.21,10.0,West,12.7,18.4,N/A,,Mostly Cloudy,260,2012-10-26 15:15:00
11:35 AM,42.8,30.2,61,30.22,10.0,West,17.3,23.0,N/A,,Mostly Cloudy,260,2012-10-26 15:35:00
11:55 AM,41.0,26.6,57,30.22,10.0,West,16.1,21.9,N/A,,Overcast,270,2012-10-26 15:55:00
12:15 PM,42.8,26.6,53,30.22,10.0,WNW,12.7,-,N/A,,Overcast,300,2012-10-26 16:15:00
12:35 PM,42.8,26.6,53,30.22,10.0,West,16.1,20.7,N/A,,Overcast,270,2012-10-26 16:35:00
12:55 PM,42.8,28.4,57,30.22,10.0,WNW,16.1,19.6,N/A,,Overcast,290,2012-10-26 16:55:00
1:15 PM,42.8,26.6,53,30.24,10.0,West,13.8,17.3,N/A,,Overcast,270,2012-10-26 17:15:00
1:35 PM,42.8,26.6,53,30.23,10.0,West,12.7,-,N/A,,Overcast,280,2012-10-26 17:35:00
1:55 PM,42.8,26.6,53,30.23,10.0,WNW,16.1,19.6,N/A,,Overcast,290,2012-10-26 17:55:00
2:15 PM,44.6,26.6,49,30.23,10.0,West,13.8,-,N/A,,Mostly Cloudy,270,2012-10-26 18:15:00
2:35 PM,44.6,26.6,49,30.23,10.0,West,16.1,21.9,N/A,,Mostly Cloudy,270,2012-10-26 18:35:00
2:55 PM,42.8,26.6,53,30.22,10.0,WNW,16.1,-,N/A,,Partly Cloudy,290,2012-10-26 18:55:00
3:15 PM,42.8,24.8,49,30.22,10.0,WNW,11.5,17.3,N/A,,Partly Cloudy,300,2012-10-26 19:15:00
3:35 PM,44.6,26.6,49,30.22,10.0,West,15.0,23.0,N/A,,Mostly Cloudy,280,2012-10-26 19:35:00
3:55 PM,44.6,24.8,46,30.22,10.0,West,16.1,-,N/A,,Scattered Clouds,270,2012-10-26 19:55:00
4:15 PM,42.8,24.8,49,30.22,10.0,West,13.8,20.7,N/A,,Partly Cloudy,280,2012-10-26 20:15:00
4:35 PM,44.6,24.8,46,30.22,10.0,West,13.8,18.4,N/A,,Partly Cloudy,280,2012-10-26 20:35:00
4:55 PM,42.8,24.8,49,30.23,10.0,West,15.0,19.6,N/A,,Scattered Clouds,270,2012-10-26 20:55:00
5:15 PM,42.8,24.8,49,30.23,10.0,WNW,11.5,17.3,N/A,,Partly Cloudy,300,2012-10-26 21:15:00
5:35 PM,42.8,24.8,49,30.23,10.0,West,11.5,-,N/A,,Clear,280,2012-10-26 21:35:00
5:55 PM,42.8,24.8,49,30.24,10.0,West,10.4,-,N/A,,Clear,280,2012-10-26 21:55:00
6:15 PM,41.0,24.8,53,30.24,10.0,West,9.2,-,N/A,,Clear,280,2012-10-26 22:15:00
6:35 PM,39.2,24.8,56,30.25,10.0,West,5.8,-,N/A,,Clear,270,2012-10-26 22:35:00
6:55 PM,39.2,24.8,56,30.26,10.0,West,3.5,-,N/A,,Partly Cloudy,270,2012-10-26 22:55:00
7:15 PM,37.4,24.8,60,30.27,10.0,Calm,Calm,-,N/A,,Mostly Cloudy,0,2012-10-26 23:15:00
7:35 PM,35.6,24.8,65,30.27,10.0,Calm,Calm,-,N/A,,Mostly Cloudy,0,2012-10-26 23:35:00
7:55 PM,33.8,26.6,75,30.29,10.0,Calm,Calm,-,N/A,,Mostly Cloudy,0,2012-10-26 23:55:00
8:15 PM,33.8,26.6,75,30.30,10.0,WSW,4.6,-,N/A,,Mostly Cloudy,240,2012-10-27 00:15:00
8:35 PM,33.8,26.6,75,30.30,10.0,West,4.6,-,N/A,,Overcast,260,2012-10-27 00:35:00
8:55 PM,33.8,26.6,75,30.30,10.0,West,4.6,-,N/A,,Overcast,270,2012-10-27 00:55:00
9:15 PM,33.8,26.6,75,30.31,10.0,West,4.6,-,N/A,,Mostly Cloudy,280,2012-10-27 01:15:00
9:35 PM,33.8,26.6,75,30.30,10.0,West,3.5,-,N/A,,Overcast,280,2012-10-27 01:35:00
10:15 PM,33.8,24.8,70,30.31,10.0,WNW,3.5,-,N/A,,Overcast,300,2012-10-27 02:15:00
10:35 PM,33.8,26.6,75,30.31,10.0,West,4.6,-,N/A,,Overcast,280,2012-10-27 02:35:00
10:55 PM,33.8,26.6,75,30.31,10.0,West,3.5,-,N/A,,Overcast,280,2012-10-27 02:55:00
11:15 PM,33.8,26.6,75,30.30,10.0,Calm,Calm,-,N/A,,Overcast,0,2012-10-27 03:15:00
11:35 PM,32.0,26.6,80,30.30,10.0,Calm,Calm,-,N/A,,Mostly Cloudy,0,2012-10-27 03:35:00
11:55 PM,30.2,24.8,80,30.30,10.0,Calm,Calm,-,N/A,,Partly Cloudy,0,2012-10-27 03:55:00